Regional Weather Roundup
Issued by NWS Upton, NY

Current Version | Previous Version | Text Only | Print | Product List | Glossary On
Versions: 1 2 3 4 5 6 7 8 9 10 11 12 13 14 15 16 17 18 19 20 21 22 23 24 25 26 27
000
ASUS41 KOKX 230005
RWROKX

REGIONAL WEATHER ROUNDUP
NATIONAL WEATHER SERVICE NEW YORK NY
800 PM EDT FRI JUL 22 2016

NOTE: "FAIR" INDICATES FEW OR NO CLOUDS BELOW 12,000 FEET WITH NO
SIGNIFICANT WEATHER AND/OR OBSTRUCTIONS TO VISIBILITY.

NYZ071-072-176-178-NJZ106-104-230100-
NEW YORK CITY METRO AREA

CITY           SKY/WX    TMP DP  RH WIND       PRES   REMARKS
Central Park   PTCLDY    89  71  55 VRB7      29.81S HX  95
LaGuardia APRT PTCLDY    92  71  50 SW18      29.77S HX  98
Kennedy INTL   PTCLDY    83  70  64 S14       29.80S
Newark/Liberty PTCLDY    92  65  40 SW16      29.79R HX  94
BRNX BOT. GARD   N/A     91  68  46 SW15      29.80R HX  95
Wall St Helipt PTCLDY    88  72  58 W12       29.80R HX  94
Teterboro      PTCLDY    92  65  40 SW16G23   29.77R HX  94
$$

NYZ177-179-078>081-230100-
LONG ISLAND NEW YORK

CITY           SKY/WX    TMP DP  RH WIND       PRES   REMARKS
FARMINGDALE    CLEAR     81  72  74 SW15      29.80S
ISLIP          PTCLDY    80  72  76 SW13G22   29.80F
SHIRLEY        CLEAR     79  72  79 SW10G21   29.81F
RIVERHEAD      NOT AVBL
WESTHAMPTON    CLEAR     77  71  82 SW15G23   29.82F
SOUTHAMPTON      N/A     75  72  88 W9        29.77F
BRIDGEHAMPTON    N/A     77  72  83 S3        29.80F
EAST HAMPTON   FAIR      76  72  86 SW10G18   29.81S
MONTAUK POINT    N/A     76  72  87 SW12G26   29.81F
$$

NYZ052-065-067-230100-
HUDSON VALLEY

CITY           SKY/WX    TMP DP  RH WIND       PRES   REMARKS
WHITE PLAINS   PTCLDY    89  67  47 W7        29.79S HX  92
NEWBURGH       PTCLDY    90  68  48 W7        29.79S HX  93
MONTGOMERY     PTCLDY    88  67  49 SW7       29.77S HX  91
POUGHKEEPSIE   PTCLDY    90  71  53 NW6       29.75R HX  96
ALBANY         PTCLDY    86  68  54 NW8       29.75F
$$

NJZ001-105-106-008-010-013-015-019>022-104-230100-
NEW JERSEY

CITY           SKY/WX    TMP DP  RH WIND       PRES   REMARKS
NEWARK/LIBERTY PTCLDY    92  65  40 SW16      29.79R HX  94
TETERBORO      PTCLDY    92  65  40 SW16G23   29.77R HX  94
CALDWELL       CLEAR     91  66  43 SW3       29.79R HX  93
MORRISTOWN     PTCLDY    90  66  45 W9        29.80R HX  92
SOMERVILLE     CLEAR     89  66  46 VRB3      29.79R HX  91
SUSSEX         CLEAR     88  66  48 SW6       29.81R HX  90
ANDOVER          N/A     86  66  51 SW6       29.82S
TRENTON        CLEAR     87  71  58 SW13      29.82S HX  93
MILLVILLE      CLEAR     86  68  54 SW6       29.88S
ATLANTIC CITY  CLEAR     86  65  49 SW8       29.87S
WRIGHTSTOWN    MOCLDY    86  71  60 SW12      29.82R HX  91
TOMS RIVER     CLEAR     86  67  52 SW8       29.85S
BELMAR         CLEAR     87  67  51 SW12      29.84S HX  90
$$

PAZ047>061-062-071-230100-
EASTERN PENNSYLVANIA

CITY           SKY/WX    TMP DP  RH WIND       PRES   REMARKS
PHILADELPHIA   MOCLDY    89  72  56 SW16      29.85S HX  96
ALLENTOWN      CLEAR     89  64  43 SW10      29.83R HX  90
SCRANTON       PTCLDY    87  66  49 SW14G23   29.84R
$$

CTZ002-004>006-009-010-012-RIZ004-006-007-MAZ004-011-015-230100-
SOUTHERN NEW ENGLAND
 IN CT

CITY           SKY/WX    TMP DP  RH WIND       PRES   REMARKS
BRADLEY INTL   MOCLDY    91  68  46 SW7       29.73S HX  95
HARTFORD       CLEAR     89  71  55 S12       29.74R HX  95
DANBURY        CLOUDY    88  67  49 SW7       29.79S HX  91
WTRBRY/OXFORD  MOCLDY    84  70  61 S6        29.82S
BRIDGEPORT     CLOUDY    83  71  67 S17       29.77S
MERIDEN        PTCLDY    85  70  60 S9        29.77R
NEW HAVEN      CLOUDY    80  71  74 SW13G21   29.78S
CHESTER        FAIR      81  72  74 SW8G17    29.80S
GROTON         CLEAR     77  70  79 SW9G20    29.78S
WILLIMANTIC    NOT AVBL

 IN RI

CITY           SKY/WX    TMP DP  RH WIND       PRES   REMARKS
PROVIDENCE     PTCLDY    83  69  62 SW12G23   29.77S
BLOCK ISLAND   CLEAR     73  70  90 SW17G25   29.81S
WESTERLY       CLEAR     77  69  76 SW8       29.79F

 IN MA

CITY           SKY/WX    TMP DP  RH WIND       PRES   REMARKS
BOSTON         PTCLDY    88  70  55 SW22G29   29.71R HX  93
WORCESTER      TSTM      78  71  79 SW5       29.79S
WESTFIELD      CLEAR     85  67  54 N8        29.74S
PROVINCETOWN   CLEAR     74  70  87 SW22G28   29.76R
NANTUCKET      CLEAR     72  69  90 SW18G28   29.82S FOG
$$

ANZ330-335-338-340-345-350-353-355-230100-
COASTAL MARINE OBSERVATIONS


STATION/POSITION TIME  SKY/WX   TEMP    WIND        PRES    VSBY  WAVE
                                AIR SEA DIR/SP/G                  HT/PER
                 (UTC)          (F)     (DEG/KT/KT) (MB)    (MI)  (FT/S)
NY HARB ENTRANCE 2250            77 72  200/ 19/ 23 1008.8          5/ 6
20S FIRE ISLAND  2250            77 74  210/ 19/ 23 1009.3          5/ 6
GREAT SOUTH BAY  2300            79 80  230/ 12/ 25   N/A
23 SSW MONTAUK P 2250            77 73  220/ 21/ 25 1009.9          5/ 6
15 E BARNEGAT LI 2322               75                N/A           4/ 5
HUDSON CANYON    2250            78 76              1011.7          5/ 6
KINGS POINT      2300               74                N/A
EXECUTION ROCKS  2300            82     200/ 10/ 12   N/A
CENTRAL LI SOUND 2300            79 72  200/ 17/ 21   N/A           2/ 3
EASTERN LI SOUND 2300            75 68  230/ 16/ 21   N/A
ROBBINS REEF     2300                   220/ 15/ 18   N/A
$$


>>>>>>>>>>>>>>>>>>>>>>>>>>>> KEY <<<<<<<<<<<<<<<<<<<<<<<<<<<
>                                                          <
>     SKY/WX - SKY CONDITION/PRESENT WEATHER               <
>     TMP    - TEMPERATURE IN FAHRENHEIT                   <
>     DP     - DEWPOINT IN FAHRENHEIT                      <
>     RH     - RELATIVE HUMIDITY IN PERCENT                <
>     WIND   - DIRECTION AND SPEED IN MPH                  <
>     PRES   - MEAN SEA LEVEL PRESSURE IN INCHES OF HG     <
>     WCI    - WIND CHILL INDEX                            <
>     VSB    - VISIBILITY IN MILES                         <
>     HX     - HEAT INDEX                                  <
>     TC     - TEMPERATURE IN CELSIUS                      <
>     VRB    - VARIABLE WIND DIRECTION                     <
>                                                          <
>>>>>>>>>>>>>>>>>>>>>>>>>>>> KEY <<<<<<<<<<<<<<<<<<<<<<<<<<<






USA.gov is the U.S. government's official web portal to all federal, state and local government web resources and services.